This is the latest recevied weather packets stored in our database for station/object OE-11372. If no packets are shown the sender has not sent any weather packets the latest 10 day(s).
| Time | Temp. | Humidity | Pressure | Rain* | Wind** | Luminosity | Snow |
|---|---|---|---|---|---|---|---|
| 1788095476 | 22.78° C | 47% | 853.4 hPa | 0 mm | - | 222 W/m² | - |
| 1788095103 | 23.33° C | 48% | 853.4 hPa | 0 mm | - | 264 W/m² | - |
| 1788094503 | 23.33° C | 47% | 853.4 hPa | 0 mm | - | 478 W/m² | - |
| 1788093676 | 23.33° C | 45% | 853.5 hPa | 0 mm | - | 428 W/m² | - |
| 1788093303 | 23.33° C | 47% | 853.6 hPa | 0 mm | - | 824 W/m² | - |
| 1788092702 | 23.33° C | 45% | 853.6 hPa | 0 mm | - | 857 W/m² | - |
| 1788091875 | 22.78° C | 50% | 853.5 hPa | 0 mm | - | 857 W/m² | - |
| 1788091503 | 22.78° C | 50% | 853.6 hPa | 0 mm | - | 914 W/m² | - |
| 1788090903 | 22.22° C | 47% | 853.5 hPa | 0 mm | - | 832 W/m² | - |
| 1788090075 | 22.22° C | 50% | 853.7 hPa | 0 mm | - | 857 W/m² | - |
| 1788089702 | 21.67° C | 52% | 853.8 hPa | 0 mm | - | 824 W/m² | - |
| 1788089103 | 21.11° C | 57% | 853.8 hPa | 0 mm | - | 807 W/m² | - |
| 1788088276 | 20.56° C | 57% | 853.9 hPa | 0 mm | - | 387 W/m² | - |
| 1788087903 | 20.56° C | 55% | 854 hPa | 0 mm | - | 692 W/m² | - |
| 1788087303 | 20.56° C | 57% | 854 hPa | 0 mm | - | 865 W/m² | - |
| 1788086476 | 20.56° C | 55% | 854.2 hPa | 0 mm | - | 840 W/m² | - |
| 1788086103 | 20.56° C | 56% | 854.2 hPa | 0 mm | - | 774 W/m² | - |
| 1788085503 | 20° C | 57% | 854.3 hPa | 0 mm | - | 791 W/m² | - |
| 1788084676 | 19.44° C | 56% | 854.4 hPa | 0 mm | - | 783 W/m² | - |
| 1788084303 | 18.89° C | 62% | 854.4 hPa | 0 mm | - | 659 W/m² | - |
| 1788083702 | 18.89° C | 59% | 854.4 hPa | 0 mm | - | 741 W/m² | - |
| 1788082876 | 18.33° C | 61% | 854.4 hPa | 0 mm | - | 717 W/m² | - |
| 1788082503 | 18.33° C | 61% | 854.4 hPa | 0 mm | - | 700 W/m² | - |
| 1788081902 | 17.78° C | 63% | 854.5 hPa | 0 mm | - | 684 W/m² | - |
| 1788081076 | 17.78° C | 63% | 854.6 hPa | 0 mm | - | 667 W/m² | - |
* Rain latest hour (hover to see other rain measurements)
** Current wind speed in m/s (hover to see current wind gust speed)